Regional Weather Roundup
Issued by NWS

Home | Current Version | Previous Version | Graphics & Text | Print | Product List | Glossary On
Versions: 1 2 3 4 5 6 7 8 9 10 11 12 13 14 15 16 17 18 19 20 21 22 23 24 25 26 27 28 29 30 31 32 33 34 35 36 37 38 39 40 41 42 43 44 45 46 47 48 49 50
000
ASUS45 KTFX 280510
RWRMT
MONTANA REGIONAL WEATHER ROUNDUP
NATIONAL WEATHER SERVICE GREAT FALLS MT
1100 PM MDT WED MAY 27 2015

NOTE: "FAIR" INDICATES FEW OR NO CLOUDS BELOW 12000 FEET WITH NO
SIGNIFICANT WEATHER AND/OR OBSTRUCTIONS TO VISIBILITY.

MTZ001>007-043-280600-
WEST OF THE DIVIDE

CITY           SKY/WX    TMP DP  RH WIND       PRES   REMARKS
KALISPELL      MOCLDY    54  49  83 CALM      30.00R
MISSOULA       CLOUDY    57  45  64 S7        30.04R
BUTTE          CLOUDY    48  40  73 CALM      30.09R
MULLAN PASS    PTCLDY    46  41  82 NW5       30.10R
DEER LODGE       N/A     48  45  87 W5        30.10S
EUREKA           N/A     61  50  67 N9        30.01R
HAMILTON         N/A     48  45  87 S6        30.06R
LIBBY            N/A     57  48  72 S5        29.99S
PLAINS           N/A     56  51  83 CALM      30.03R
RONAN            N/A     56  50  80 CALM      30.06R
$$

MTZ008-052>055-280600-
SOUTHWEST MONTANA

CITY           SKY/WX    TMP DP  RH WIND       PRES   REMARKS
BOZEMAN        CLOUDY    51  46  83 W3        30.04S
DILLON         CLOUDY    47  43  86 N5        30.07R
W YELLOWSTONE  CLOUDY    41  39  93 S6        30.12S
THREE FORKS      N/A     52  -9   8 CALM      30.03S
$$

MTZ009-010-012-014-046-048-049-054-280600-
EAST SLOPES AND CENTRAL MONTANA

CITY           SKY/WX    TMP DP  RH WIND       PRES   REMARKS
CUT BANK       MOCLDY    51  48  89 NW6       29.99S
GREAT FALLS    MOCLDY    54  46  74 NW5       29.99R
MALMSTROM AFB  MOCLDY    57  48  73 W2        29.99R
HELENA         CLOUDY    55  47  74 NW3       30.01S
CONRAD           N/A     52  52 100 N2        30.01S
$$

MTZ011-013-016-021-045-047-050-051-280600-
NORTH CENTRAL MONTANA

CITY           SKY/WX    TMP DP  RH WIND       PRES   REMARKS
HAVRE          MOCLDY    55  51  86 S6        29.94S
LEWISTOWN      MOCLDY    52  48  86 SW3       30.00R
N BAR RANCH    FAIR      48  46  93 W5        30.03S
CHINOOK          N/A     57  54  88 CALM      29.94S
FORT BENTON      N/A     55  48  76 CALM      29.98R
$$

MTZ017>020-022>027-061-062-280600-
NORTHEAST MONTANA

CITY           SKY/WX    TMP DP  RH WIND       PRES   REMARKS
GLASGOW        MOCLDY    60  55  83 E6        29.89R
JORDAN           N/A     54  52  93 CALM      29.92R
SIDNEY         MOCLDY    55  54  94 CALM      29.91F
WOLF POINT     CLOUDY    59  54  83 CALM      29.89F
MALTA            N/A     59  49  69 CALM      29.89R
PLENTYWOOD       N/A     57  52  82 NE7       29.92F
POPLAR           N/A     57  54  88 E5        29.90S
SCOBEY           N/A     56  50  80 E12       29.91F
$$

MTZ028>42-056>058-280600-
SOUTHCENTRAL AND SOUTHEAST MONTANA

CITY           SKY/WX    TMP DP  RH WIND       PRES   REMARKS
BAKER          PTCLDY    54  52  93 CALM      29.95S
BILLINGS       PTCLDY    55  47  74 CALM      29.99R
LIVINGSTON     PTCLDY    51  42  71 W9        30.01S
MILES CITY     MOCLDY    56  55  97 W8        29.93R
BIG TIMBER       N/A     54  43  66 W5        30.02F
EKALAKA          N/A     54  50  86 SE8       29.94F
FORSYTH          N/A     57  55  94 CALM      29.94S
LAUREL           N/A     52  39  61 W1        29.98R
ROUNDUP          N/A     54  48  80 S6        29.90S
$$

REGIONAL REPORTS...DAKOTAS

CITY           SKY/WX    TMP DP  RH WIND       PRES   REMARKS
WILLISTON      MOCLDY    57  53  86 NE7       29.92S
MINOT          LGT RAIN  60  56  86 E10       29.94S
DICKINSON      CLOUDY    57  54  89 S9        29.90S
BEACH          FAIR      50  50 100 S5        29.94F
CROSBY         CLOUDY    57  57 100 E7        29.94F
WATFORD CITY   FAIR      55  55 100 CALM      29.89F
BISMARCK       CLOUDY    61  59  93 E7        29.95F
GRAND FORKS    MOCLDY    60  52  74 CALM      29.98F
FARGO          CLOUDY    65  55  70 E7        29.97F
BUFFALO SD       N/A     54  53  97 NE6       29.89F
RAPID CITY     PTCLDY    59  56  89 CALM      29.95R
$$

REGIONAL REPORTS...WYOMING/IDAHO/WASHINGTON

CITY           SKY/WX    TMP DP  RH WIND       PRES   REMARKS
GILLETTE       LGT RAIN  58  54  86 NE10      29.97F
SHERIDAN       CLOUDY    56  51  84 CALM      30.00R
BUFFALO WY     CLOUDY    53  48  83 NW8       30.04S
CODY           CLOUDY    52  46  82 CALM      30.05R
YELLOWSTONE LA   N/A     38  35  89 CALM      30.17F
IDAHO FALLS    CLOUDY    49  45  86 E7        30.09F
SALMON         CLOUDY    50  46  87 CALM      30.07R
BOISE          CLEAR     64  42  44 N3        30.00R
SPOKANE        PTCLDY    65  48  54 SW7       29.99R
$$

REGIONAL REPORTS...ALBERTA

CITY           SKY/WX    TMP DP  RH WIND       PRES   REMARKS
EDMONTON       PTCLDY    57  45  62 NE22G28   29.97R
CALGARY        MOCLDY    61  43  51 N8        29.99R
LETHBRIDGE     CLEAR     50  46  87 SW8       29.96R
MEDICINE HAT   MOCLDY    57  50  77 NE6       29.93F
$$

REGIONAL REPORTS...SASKATCHEWAN

CITY           SKY/WX    TMP DP  RH WIND       PRES   REMARKS
SWIFT CURRENT  PTCLDY    54  46  76 SE6       29.95R
REGINA         MOCLDY    55  46  71 S5        29.95S
SASKATOON      PTCLDY    57  37  47 SE8       29.94F
$$


USA.gov is the U.S. government's official web portal to all federal, state and local government web resources and services.